Regional Weather Roundup
Issued by NWS Jackson, KY

Current Version | Previous Version | Text Only | Print | Product List | Glossary On
Versions: 1 2 3 4 5 6 7 8 9 10 11 12 13 14 15 16 17 18 19 20 21 22 23 24 25 26 27 28
000
ASUS43 KJKL 012110
RWRJKL

EAST KENTUCKY HOURLY WEATHER ROUNDUP
NATIONAL WEATHER SERVICE JACKSON KY
500 PM EDT SUN MAY 01 2016

NOTE: "FAIR" INDICATES FEW OR NO CLOUDS BELOW 12,000 FEET WITH
NO SIGNIFICANT WEATHER AND/OR OBSTRUCTIONS TO VISIBILITY.

* THESE REPORTS ARE NOT UNDER NWS QUALITY CONTROL AND MAY NOT
  REPORT WEATHER SUCH AS PRECIPITATION AND FOG.

KYZ079-080-083-085-087-088-110-112-115-119-120-012200
...EASTERN KENTUCKY...

CITY           SKY/WX    TMP DP  RH WIND       PRES   REMARKS
JACKSON        CLOUDY    80  62  54 VRB3      29.90F
LONDON         MOSUNNY   81  61  50 SW10      29.90F
SOMERSET*      CLOUDY    79  59  50 W17       29.93R
MONTICELLO*    MOSUNNY   81  64  56 W21G29    29.94S
WILLIAMSBURG*  MOCLDY    81  63  54 SW6       29.91F
MIDDLESBORO*   CLOUDY    79  62  55 SW9G16    29.93F
HARLAN APT*    MOCLDY    79  57  47 SE5       29.93F
HAZARD APT*    MOCLDY    81  61  50 SW9       29.89F
BLACK MTN*       N/A     68  63  83 S7          N/A
PIKE CO APT*     N/A     79  62  56 SW8       29.90F
BIG SANDY APT* HVY RAIN  69  62  79 SW15      29.92R
MOREHEAD APT*  MOCLDY    73  63  68 N8G15     29.92S
$$

KYZ035-036-041-042-044-050-067-078-099-012200
...CENTRAL KENTUCKY...

CITY           SKY/WX    TMP DP  RH WIND       PRES   REMARKS
MT STERLING*   MOSUNNY   73  63  68 N6        29.91S
FLEMING/MASON* DRIZZLE   63  58  84 SE5       29.94R
DANVILLE*      PTSUNNY   79  63  57 SW8       29.91F
RICHMOND*      MOSUNNY   79  63  57 SW13      29.89F
LEXINGTON      CLOUDY    64  59  83 VRB5      29.91R THUNDER
FRANKFORT      CLOUDY    65  57  75 N12       29.94R
LOUISVILLE     LGT RAIN  67  62  84 NW3       29.91S
LEBANON*         N/A     81  64  57 S14       29.90F
BOWLING GREEN  MOSUNNY   80  65  59 SW9       29.91F
$$

KYZ091>093-OHZ055-061-077-WVZ005-015-034-035-042-012200
...SOUTHERN OHIO/WEST VIRGINIA...

CITY           SKY/WX    TMP DP  RH WIND       PRES   REMARKS
COVINGTON      CLOUDY    78  56  46 W7        29.88F
COLUMBUS       MOSUNNY   75  57  53 SW10G18   29.88F
DAYTON         MOSUNNY   76  55  48 W8        29.90F
WILMINGTON     SUNNY     77  58  51 SW7       29.88F
HUNTINGTON     CLOUDY    65  59  81 E6        29.89F
CHARLESTON     PTSUNNY   77  60  55 W3        29.90F THUNDER
PINEVILLE*       N/A     79  55  42 MISG      29.98F
BECKLEY          N/A     75  55  49 NW8       29.97F
$$

VAZ002-007-008-TNZ017-027-036-066-071-012200
...SOUTHWEST VIRGINIA/EAST TENNESSEE...

CITY           SKY/WX    TMP DP  RH WIND       PRES   REMARKS
WISE*            N/A     73  54  49 SW14      30.01F
BRISTOL        CLOUDY    78  61  55 SW6       29.96F
MORRISTOWN*    CLEAR     79  63  57 SW13      29.95F
SEVIERVILLE*   PTCLDY    81  63  54 W8        29.93F
KNOXVILLE      CLOUDY    80  64  58 SW14      29.94F
OAK RIDGE      CLOUDY    81  63  54 VRB6      29.95F
CROSSVILLE     CLOUDY    78  59  51 VRB6G16   29.99S
NASHVILLE      CLOUDY    82  61  48 S13       29.93S
$$

...KEY TO REMARKS...
VSB - VISIBILITY IN MILES
WCI - WIND CHILL INDEX
HX  - HEAT INDEX

$$




USA.gov is the U.S. government's official web portal to all federal, state and local government web resources and services.